Wind_Speed
16 16 16 16 17 17 17 17 17 16 16 16 15 14 15 15 15 15 15 15 14 14 14 14 13 13 13 13 14 13 13 13 13 13 14 14 14 14
18 18 18 18 19 19 19 18 18 18 17 17 16 15 15 16 16 16 16 16 16 16 16 15 15 14 14 14 14 14 14 14 14 14 15 15 15 15
18 18 19 19 20 20 19 20 19 19 19 19 18 17 17 17 18 17 17 17 17 18 18 17 16 16 15 14 14 15 15 16 16 15 16 16 16 15
20 20 20 21 21 21 21 21 21 21 21 21 20 19 18 18 19 19 19 19 19 19 19 19 18 18 17 16 16 16 17 17 17 17 16 16 17 16
22 22 22 22 22 23 23 23 23 23 23 23 22 21 21 21 20 20 20 20 20 20 20 20 20 20 19 19 19 19 19 19 19 19 18 18 18 18
24 24 24 23 24 24 24 24 25 24 24 24 24 23 23 23 22 22 22 22 22 22 21 21 21 21 21 21 21 21 21 21 21 21 21 20 20 20
24 25 25 25 25 26 25 25 25 26 25 25 25 24 24 25 24 24 24 24 24 24 24 24 23 23 23 23 23 23 23 23 23 22 23 22 22 22
26 25 25 26 27 27 27 26 26 26 27 26 26 26 26 26 26 26 26 26 26 26 26 26 26 25 25 26 25 25 24 24 24 24 24 25 24 24
26 27 28 27 28 29 29 28 27 27 27 27 27 27 28 27 28 28 28 29 28 27 28 27 27 27 27 27 27 27 27 26 26 26 27 26 26 26
28 28 28 28 29 29 29 29 29 29 28 28 28 27 28 29 29 29 30 30 29 28 29 28 28 27 27 27 27 27 27 27 28 28 28 27 26 26
29 29 28 28 29 29 29 29 29 29 29 28 28 29 29 30 31 32 31 31 30 29 29 29 29 28 28 28 28 28 27 28 28 28 29 28 28 28
29 29 29 29 29 29 29 29 29 29 28 29 30 30 31 31 32 32 32 32 32 31 30 31 31 30 30 30 30 30 30 30 29 29 29 29 29 29
29 29 29 29 29 29 29 29 29 29 29 30 31 31 32 32 33 33 33 33 33 32 32 32 32 32 32 32 31 32 32 31 31 31 31 31 31 31
28 28 28 29 29 29 29 29 29 30 30 31 31 32 33 33 33 34 33 33 33 33 33 33 33 33 33 33 32 33 33 33 33 32 32 32 32 32
29 30 29 29 29 30 30 30 30 30 31 32 33 33 33 33 33 33 33 33 33 34 34 34 34 34 34 34 33 33 33 33 34 34 34 34 33 33
30 30 30 30 30 30 30 29 30 31 31 32 33 33 34 34 34 33 33 33 33 33 34 34 33 34 34 34 34 34 34 34 34 35 36 35 35 34
30 31 31 31 31 31 30 31 31 32 32 33 33 34 33 34 34 34 34 34 34 34 34 34 34 33 34 35 35 36 36 35 36 37 37 37 37 36
31 31 32 32 32 32 32 32 33 33 34 35 35 35 35 34 34 34 34 34 34 34 34 34 35 34 34 35 36 36 37 37 37 37 38 38 37 37
33 32 32 33 33 34 35 34 34 34 35 35 36 36 36 35 35 34 34 34 34 34 34 34 34 34 34 34 34 36 37 37 37 38 38 38 38 37
33 32 33 34 34 34 35 35 35 35 35 36 36 35 35 35 35 35 35 35 35 35 35 34 34 34 35 35 35 35 36 35 35 36 36 37 37 36
32 33 33 34 34 35 35 35 36 36 36 36 35 35 35 35 36 36 36 35 36 36 36 36 35 36 36 36 36 36 35 35 35 35 34 34 34 35
33 34 35 35 35 36 36 36 36 36 36 35 35 35 36 36 35 35 35 35 35 35 35 35 36 36 37 37 37 37 37 36 34 34 34 33 33 33
35 35 35 35 35 35 36 36 36 36 35 35 36 36 36 36 36 34 34 34 34 34 33 34 34 34 35 36 36 36 35 35 34 33 33 32 33 33
Wind_Direction
292 294 294 295 295 296 295 296 296 296 297 294 293 294 293 295 296 295 294 295 294 293 292 291 292 288 287 285 281 277 276 276 277 279 279 280 278 274
290 292 293 295 295 294 293 294 294 294 294 294 290 289 290 291 292 292 292 291 291 292 292 290 289 289 285 284 283 279 276 274 276 278 279 280 279 277
290 291 293 296 297 295 294 292 292 292 292 293 289 289 289 289 290 290 287 286 286 286 287 287 287 286 285 283 282 282 278 275 276 275 277 278 279 279
288 290 293 295 296 294 292 290 289 290 290 291 289 288 288 288 287 286 286 285 282 282 283 283 283 284 282 281 280 281 278 276 274 274 277 279 278 279
290 290 293 293 293 294 290 288 288 289 290 291 291 290 289 289 289 287 286 286 283 281 280 280 280 280 280 280 278 277 278 275 275 276 276 277 277 278
291 290 292 293 293 292 291 288 287 288 290 290 290 289 288 289 288 287 284 284 283 281 279 278 277 277 277 277 276 275 275 276 275 276 276 276 278 278
293 292 291 290 289 290 292 290 288 289 288 288 287 287 288 287 287 286 285 283 282 281 279 277 277 276 276 276 276 275 275 274 273 275 275 275 276 276
292 292 292 290 289 290 291 291 290 289 287 288 285 285 287 287 287 286 285 284 283 282 281 279 277 275 274 275 275 275 275 274 272 272 273 273 273 274
294 292 291 291 291 290 290 289 288 288 288 287 284 284 284 286 287 287 287 286 283 281 281 280 277 276 275 275 275 274 275 275 273 274 273 272 272 272
294 295 294 293 292 292 291 289 287 287 286 286 285 285 284 285 287 287 287 286 284 282 281 281 279 275 274 274 274 275 274 274 274 273 273 273 273 273
292 293 295 295 294 293 292 291 290 288 287 285 284 284 285 286 286 286 285 284 283 281 280 279 278 276 275 275 274 275 275 275 275 273 271 271 273 274
291 291 293 294 295 295 293 292 291 289 288 287 286 285 284 285 286 286 286 284 282 280 279 278 277 276 275 275 274 273 273 274 274 273 271 270 271 272
291 291 292 293 294 294 294 294 293 290 287 287 286 285 285 284 284 284 284 283 281 281 279 278 277 275 275 274 273 272 271 271 272 274 272 271 270 270
291 290 292 292 292 293 292 293 292 291 290 289 289 288 287 285 285 284 283 282 281 280 279 278 277 276 275 273 272 270 269 270 270 271 270 271 271 271
292 291 291 291 292 292 292 291 290 289 291 291 291 290 288 287 286 284 283 281 280 280 279 279 278 278 276 275 274 272 270 269 269 269 270 270 270 270
291 291 291 291 291 291 291 291 290 290 291 292 293 292 290 288 287 285 283 282 282 281 280 280 278 278 276 275 275 273 272 271 271 271 271 270 269 269
292 292 291 291 291 291 290 290 290 291 291 292 293 292 292 290 288 286 284 283 283 282 281 280 279 278 277 276 276 275 274 274 273 272 271 270 270 269
293 292 292 291 291 290 291 291 291 291 292 292 292 293 292 292 291 288 286 285 284 282 281 280 279 278 278 276 277 277 275 274 273 273 272 271 270 268
294 293 292 293 293 292 291 291 290 290 290 292 293 293 293 292 291 289 287 286 285 285 282 280 279 279 278 277 278 278 276 274 273 273 272 271 270 268
295 294 293 294 294 293 293 292 291 290 290 290 292 292 292 291 291 290 288 286 285 284 283 280 278 278 278 278 277 276 276 275 273 272 273 271 271 270
297 297 297 296 295 294 293 292 292 291 290 290 290 291 290 290 290 289 287 286 284 284 282 281 278 278 278 278 278 277 277 276 275 274 272 271 272 271
299 299 298 297 296 295 293 292 293 293 291 290 289 289 289 290 290 289 288 286 284 283 282 280 279 279 279 278 278 277 277 277 277 275 272 272 271 271
298 298 299 299 298 297 295 294 295 294 292 292 291 290 289 289 290 290 289 287 284 283 282 281 280 280 280 280 279 278 277 276 274 272 271 270 271 271
Height
5869 5868 5867 5866 5865 5863 5862 5861 5860 5859 5858 5857 5856 5855 5854 5853 5852 5851 5851 5850 5849 5848 5848 5847 5846 5845 5845 5844 5844 5844 5843 5843 5843 5843 5843 5842 5842 5842
5865 5864 5863 5862 5860 5859 5858 5857 5855 5854 5853 5852 5852 5851 5850 5849 5848 5847 5846 5845 5845 5844 5844 5843 5842 5842 5841 5840 5840 5840 5839 5839 5839 5839 5839 5838 5838 5837
5860 5859 5858 5857 5856 5854 5853 5852 5851 5850 5849 5847 5846 5846 5845 5844 5843 5842 5842 5841 5840 5840 5839 5838 5838 5837 5837 5836 5836 5835 5835 5835 5835 5835 5834 5834 5833 5833
5855 5854 5853 5852 5851 5849 5848 5847 5845 5844 5843 5842 5841 5840 5840 5839 5838 5837 5836 5836 5835 5834 5834 5833 5833 5832 5831 5831 5831 5830 5830 5830 5830 5829 5829 5829 5829 5828
5850 5849 5848 5846 5845 5843 5842 5841 5840 5838 5837 5836 5835 5835 5834 5833 5832 5831 5830 5829 5829 5828 5828 5827 5827 5826 5826 5825 5825 5825 5824 5824 5824 5824 5823 5823 5823 5823
5844 5843 5842 5841 5839 5838 5836 5835 5834 5832 5831 5830 5829 5828 5827 5826 5825 5825 5824 5823 5822 5822 5821 5821 5820 5820 5819 5819 5819 5818 5818 5818 5818 5817 5817 5817 5817 5817
5837 5836 5835 5834 5832 5831 5830 5828 5827 5826 5824 5823 5822 5821 5820 5819 5818 5818 5817 5816 5815 5815 5814 5814 5813 5813 5812 5812 5812 5811 5811 5811 5811 5810 5810 5810 5810 5810
5831 5829 5828 5827 5825 5824 5823 5821 5820 5818 5817 5816 5815 5813 5813 5812 5811 5810 5809 5808 5808 5808 5806 5806 5806 5805 5805 5804 5804 5804 5803 5803 5803 5803 5803 5803 5803 5803
5824 5822 5821 5819 5818 5817 5815 5814 5812 5811 5809 5808 5807 5806 5805 5804 5802 5801 5800 5799 5799 5798 5798 5797 5797 5797 5796 5796 5796 5795 5795 5795 5795 5795 5795 5795 5795 5795
5817 5815 5813 5811 5810 5808 5807 5806 5804 5803 5801 5800 5799 5797 5796 5795 5794 5793 5792 5791 5790 5789 5788 5788 5788 5787 5787 5786 5787 5787 5786 5786 5786 5786 5786 5787 5787 5787
5809 5807 5805 5804 5802 5800 5798 5797 5795 5794 5792 5791 5790 5789 5788 5786 5785 5783 5782 5781 5780 5780 5779 5778 5778 5778 5777 5777 5777 5777 5777 5777 5777 5777 5777 5777 5778 5778
5801 5799 5797 5796 5794 5792 5790 5788 5787 5785 5784 5783 5781 5780 5778 5777 5775 5773 5772 5771 5770 5770 5769 5768 5767 5767 5768 5768 5767 5767 5767 5767 5767 5767 5767 5767 5768 5768
5792 5791 5789 5788 5786 5784 5782 5780 5778 5776 5775 5774 5772 5770 5768 5767 5765 5763 5762 5760 5759 5759 5758 5757 5757 5756 5756 5757 5757 5757 5757 5757 5756 5757 5757 5757 5757 5758
5784 5782 5781 5779 5777 5775 5773 5771 5769 5767 5766 5764 5762 5760 5758 5756 5755 5753 5751 5750 5748 5748 5747 5746 5746 5745 5745 5745 5745 5746 5745 5745 5745 5746 5746 5746 5747 5747
5776 5774 5772 5770 5769 5767 5765 5762 5760 5758 5756 5754 5752 5750 5748 5746 5744 5742 5740 5739 5738 5737 5736 5735 5734 5734 5733 5733 5733 5733 5734 5734 5734 5734 5735 5735 5735 5736
5767 5765 5763 5762 5760 5758 5756 5753 5751 5749 5747 5744 5742 5740 5737 5735 5733 5731 5730 5728 5727 5726 5725 5724 5723 5722 5722 5722 5721 5721 5721 5722 5722 5722 5723 5723 5724 5724
5758 5756 5754 5752 5750 5747 5746 5744 5742 5739 5737 5735 5732 5729 5727 5725 5723 5720 5719 5717 5716 5715 5714 5713 5711 5711 5710 5710 5709 5709 5709 5709 5709 5709 5710 5710 5711 5712
5748 5747 5744 5742 5740 5738 5735 5733 5731 5729 5726 5724 5721 5718 5716 5714 5711 5709 5707 5706 5704 5703 5702 5701 5700 5699 5699 5699 5698 5697 5696 5696 5696 5696 5696 5697 5698 5699
5739 5737 5735 5733 5730 5728 5725 5723 5721 5718 5716 5713 5710 5707 5705 5702 5700 5698 5696 5694 5693 5691 5690 5689 5688 5687 5687 5687 5686 5685 5684 5684 5684 5684 5683 5683 5684 5685
5730 5728 5725 5723 5720 5718 5715 5712 5710 5707 5705 5702 5699 5696 5694 5691 5689 5687 5684 5683 5681 5679 5678 5677 5676 5675 5675 5675 5674 5673 5672 5671 5671 5671 5671 5671 5671 5672
5721 5718 5715 5713 5710 5707 5704 5701 5699 5696 5693 5690 5687 5685 5682 5679 5677 5675 5673 5670 5668 5667 5666 5665 5664 5663 5662 5662 5661 5661 5660 5659 5658 5658 5659 5659 5660 5661
5712 5709 5706 5703 5700 5696 5693 5690 5687 5685 5682 5678 5675 5673 5670 5666 5664 5662 5660 5658 5656 5655 5654 5652 5651 5650 5650 5649 5648 5648 5647 5647 5646 5646 5647 5648 5648 5649
5703 5700 5697 5693 5689 5686 5682 5679 5676 5673 5669 5666 5663 5661 5658 5655 5652 5650 5648 5646 5644 5643 5642 5640 5639 5638 5637 5636 5635 5635 5635 5634 5634 5634 5635 5635 5636 5637